Location: San Antonio
(29.4240°N, 98.4930°W)
Time: 07:07:32
(UTC-05:00)

Hubble Space Telescope - Visible Passes

Search period start: 18 June 2024 00:00
Search period end: 28 June 2024 00:00
Orbit: 510 x 514 km, 28.5° (Epoch: 17 June)

Date Brightness Start Highest point End Pass type
(mag) Time Alt. Az. Time Alt. Az. Time Alt. Az.
23 Jun 3.1 05:31:34 10° S 05:32:56 11° SSE 05:34:17 10° SE visible
24 Jun 2.8 05:12:42 12° S 05:13:45 13° SSE 05:15:44 10° ESE visible
25 Jun 2.7 04:54:31 15° SSE 04:54:33 15° SSE 04:56:57 10° ESE visible
26 Jun 2.8 04:36:19 16° SE 04:36:19 16° SE 04:38:05 10° ESE visible
27 Jun 3.0 04:18:05 15° ESE 04:18:05 15° ESE 04:19:07 10° ESE visible
27 Jun 0.9 05:52:52 12° WSW 05:56:25 54° SSE 06:00:18 10° E visible
